Weather in Gridino

Russia / Republic of Karelia     65°55′12″N   34°40′10″E
temp.,
°C
wind,
m/s
gust,
m/s
humid.,
%
clouds,
%
prec.,
mm/h
press.,
hPa
HPBL,
m
28 february, sun
sun2800:00−8wsw23932 0.0 101022
03:00−7ssw338951 0.0 100927
06:00−6sw3492100 0.0 100853
09:00−6sw239498 0.0 100937
12:00−4wsw359494 0.0 1009129
15:00−3wsw349569 0.0 1009118
18:00−3wsw359550 0.0 100984
21:00−1wsw599061 0.0 1007141
1 march, mon
mon100:00+1wsw61188100 0.0 1005292
03:00+1wsw81592100 0.0 1003394
06:00+2w71693100 0.0 1000451
09:00+2w71589100 0.0 999438
12:00+2w6148565 0.0 998505
15:00+2w6148132 0.0 997499
18:00−1w613800 0.0 996314
21:00−1w716810 0.0 994444
2 march, tue
tue200:000wnw10187791 0.0 994806
03:00−1wnw9178095 0.0 996735
06:00−3nw7168399 0.0 997510
09:00−5nw7148166 0.0 999328
12:00−5nw7128521 0.0 1001370
15:00−3nw8138034 0.0 1004588
18:00−5nw8167912 0.0 1005414
21:00−6wnw714806 0.0 1007317
3 march, wed
wed300:00−6wnw6128533 0.0 1007281
03:00−6wnw599164 0.0 1006187
06:00−8wnw58897 0.0 1005124
09:00−8w478824 0.0 1004124
12:00−5wnw4892100 0.1 1002485
15:00−5nw3592100 0.1 1000204
18:00−9nne129546 0.0 99821
21:00−9n228973 0.0 99721
4 march, thu
thu400:00−10n449194 0.0 99650
03:00−12nw468953 0.0 99681
06:00−12nw610915 0.0 996194
09:00−9n6109351 0.1 997404
12:00−9nne5987100 0.2 998500
15:00−10n478993 0.2 1000281
18:00−8nnw4795100 0.1 1002225
21:00−11nnw459397 0.1 100356